Location: Riddle Hill
(39.7867°N, 89.7645°W)
Time: 21:58:01
(UTC+00:00)

Cosmos 1825 - Pass Details

Date: 29 October 2020
Orbit: 501 x 508 km, 82.5° (Epoch: 30 November)

Event Time Altitude Azimuth Distance (km) Brightness Sun altitude
Rises 23:31:10 0° 17° (NNE) 2,619 5.5 -6.6°
Reaches altitude 10° 23:35:26 10° 64° (ENE) 1,723 4.2 -7.4°
Maximum altitude 23:35:50 10° 70° (ENE) 1,714 4.2 -7.5°
Drops below altitude 10° 23:36:14 10° 76° (ENE) 1,721 4.1 -7.6°
Enters shadow 23:36:34 10° 81° (E) 1,740 4.2 -7.7°
